Home > Weather > Bakersfield > Past weeks

Flag for U.S.A. Weather for the Past 2 Weeks in Bakersfield, California, U.S.A.

Now
46 °F

Clear.


Feels Like: 45 °F
Forecast: 39 / 64 °F
Wind: 3 mph from Northeast

Location: Meadows Field

Current Time: Feb 6, 2016 at 12:08:32 AM

Latest Report: Feb 5, 2016 at 10:54 PM


Visibility: 4 mi

Pressure: 30.42 "Hg

Humidity: 79%

Dew point: 40 °F

Location of BakersfieldLocation

Historic Weather in Bakersfield — Graph

°F

Bakersfield Temperature Yesterday

Maximum temperature yesterday: 63 °F (at 2:54 PM)
Minimum temperature yesterday: 36 °F (at 4:54 AM)
Average temperature yesterday: 49 °F

High & Low Weather Summary for the Past Weeks

 TemperatureHumidityPressure
High72 °F (Jan 22, 1:54 PM)97% (Jan 31, 4:59 AM)30.46 "Hg (Jan 31, 4:59 AM)
Low34 °F (Feb 3, 6:54 AM)33% (Jan 29, 1:54 PM)29.65 "Hg (Jan 31, 11:54 AM)
Average50 °F70%30.19 "Hg
* Reported Jan 21 10:54 PM — Feb 5 10:54 PM, Bakersfield, Weather by CustomWeather, © 2016

Note: Actual official high and low records may vary slightly from our data, if they occured in-between our weather recording intervals... More about our weather records

Advertising

Bakersfield Weather History for the Previous 24 Hours

 ConditionsComfort  
Time TempWeatherWind HumidityBarometerVisibility
10:54 PM
Fri, Feb 5
46 °FClear.3 mph79%30.42 "Hg4 mi
9:54 PM45 °FClear.No wind80%30.40 "Hg4 mi
8:54 PM47 °FClear.5 mph77%30.39 "Hg4 mi
7:54 PM52 °FClear.No wind66%30.38 "Hg6 mi
6:54 PM55 °FClear.6 mph62%30.37 "Hg6 mi
5:54 PM57 °FClear.No wind62%30.36 "Hg10 mi
4:54 PM60 °FSunny.6 mph53%30.35 "Hg10 mi
3:54 PM63 °FSunny.7 mph47%30.36 "Hg10 mi
2:54 PM63 °FSunny.10 mph48%30.37 "Hg10 mi
1:54 PM62 °FSunny.10 mph50%30.38 "Hg9 mi
12:54 PM59 °FSunny.3 mph54%30.40 "Hg6 mi
11:54 AM55 °FSunny.No wind57%30.42 "Hg6 mi
10:54 AM53 °FSunny.No wind61%30.44 "Hg6 mi
9:54 AM50 °FSunny.No wind66%30.45 "Hg5 mi
8:54 AM45 °FSunny.5 mph80%30.46 "Hg4 mi
7:54 AM41 °FSunny.3 mph80%30.45 "Hg7 mi
6:54 AM36 °FFog.3 mph89%30.43 "Hg6 mi
5:54 AM40 °FFog.3 mph86%30.42 "Hg6 mi
4:54 AM36 °FClear.No wind89%30.42 "Hg7 mi
3:54 AM39 °FClear.No wind82%30.41 "Hg8 mi
2:54 AM40 °FClear.No wind83%30.40 "Hg9 mi
1:54 AM40 °FClear.No wind83%30.39 "Hg8 mi
12:54 AM41 °FClear.No wind82%30.39 "Hg9 mi
Weather by CustomWeather, © 2016

See weather overviewHow to use our weather pages